Home > Time Zones > World Clock > Weather > Germany > Ulm > Past weeks

Flag Weather past 2 weeks in Ulm, Baden-Württemberg, Germany

Now
46 °F

Fog.


Feels Like: 45 °F
Forecast: 42 / 59 °F
Wind: 3 mph from East

Location: Laupheim Airport

Current Time: Nov 1, 2014 at 12:08:54 AM

Latest Report: Oct 31, 2014 at 11:20 PM


Visibility: 0 mi

Pressure: 30.30 "Hg

Humidity: 100%

Dew point: 46 °F

Location of UlmLocation

Historic Weather in Ulm — Graph

°F

Ulm temperature yesterday

Maximum temperature yesterday: 55 °F (at 3:20 PM)
Minimum temperature yesterday: 41 °F (at 8:20 AM)
Average temperature yesterday: 47 °F

Past Weeks' High & Low Weather Summary

 TemperatureHumidityPressure
High70 °F (Oct 19, 3:20 PM)100% (Oct 17, 5:20 AM)30.33 "Hg (Oct 17, 5:20 AM)
Low36 °F (Oct 24, 8:20 AM)55% (Oct 21, 4:56 PM)29.68 "Hg (Oct 21, 7:20 PM)
Average49 °F89%30.15 "Hg
* Reported Oct 16 11:20 PM — Oct 31 10:20 PM, Ulm, Weather by CustomWeather, © 2014

Note: Actual official high and low records may vary slightly from our data, if they occured in-between our weather recording intervals... More about our weather records

Advertising

Ulm weather history for previous 24 hours

 ConditionsComfort  
Time TempWeatherWind HumidityBarometerVisibility
10:20 PM
Oct 31
45 °FFog.2 mph100%30.30 "Hg0 mi
9:20 PM46 °FPassing clouds.2 mph93%30.30 "Hg4 mi
8:20 PM48 °FPassing clouds.3 mph94%30.30 "Hg4 mi
7:20 PM48 °FPassing clouds.2 mph100%30.30 "HgN/A
6:20 PM50 °FPassing clouds.2 mph94%30.30 "HgN/A
5:20 PM52 °FPassing clouds.2 mph88%30.30 "HgN/A
4:20 PM55 °FPartly sunny.6 mph77%30.30 "HgN/A
3:20 PM55 °FPartly sunny.5 mph82%30.30 "HgN/A
2:20 PM54 °FPartly sunny.2 mph77%30.30 "HgN/A
1:20 PM52 °FScattered clouds.1 mph82%30.33 "HgN/A
12:20 PM48 °FScattered clouds.2 mph100%30.33 "Hg5 mi
11:20 AM46 °FFog.1 mph100%30.33 "Hg2 mi
10:20 AM45 °FFog.1 mph100%30.33 "Hg1 mi
10:01 AM43 °FFog.2 mph100%30.33 "Hg1 mi
9:20 AM43 °FFog.3 mph100%30.33 "Hg0 mi
8:20 AM41 °FFog.1 mph100%30.33 "Hg0 mi
7:20 AM43 °FFog.1 mph93%30.30 "Hg0 mi
6:20 AM43 °FFog.1 mph100%30.30 "Hg0 mi
5:20 AM43 °FFog.2 mph100%30.30 "Hg0 mi
4:20 AM45 °FFog.2 mph100%30.30 "Hg0 mi
3:20 AM45 °FFog.5 mph100%30.30 "Hg0 mi
2:20 AM45 °FFog.5 mph100%30.33 "Hg0 mi
1:20 AM45 °FFog.5 mph100%30.33 "Hg0 mi
12:20 AM45 °FFog.5 mph100%30.33 "Hg0 mi
Weather by CustomWeather, © 2014

See weather overviewHow to use our weather pages